IW1CGW-23 Weather Reports


Display with metric or nautical units.
time (UTC)temp
F
wind
direction
speed
MPH
gust
MPH
rain 1hr
in
rain 24hr
in
rain mn
in
humidity
%
barometer
mb
20260506204918 59 0.0 0.0 0.00 0.00 0.00 82 1011.1
20260506202314 61 0.0 0.0 0.00 0.00 0.00 81 1010.8
20260506195711 62 0.0 0.0 0.00 0.00 0.00 80 1010.6
20260506194409 62 0.0 0.0 0.00 0.00 0.00 80 1010.6
20260506191804 62 0.0 0.0 0.00 0.00 0.00 79 1010.0
20260506185200 62 0.0 0.0 0.00 0.00 0.00 78 1009.6
20260506181253 63 0.0 0.0 0.00 0.00 0.00 76 1009.3
20260506175950 63 0.0 0.0 0.00 0.00 0.00 76 1009.3
20260506174648 63 0.0 0.0 0.00 0.00 0.00 76 1009.3
20260506173345 64 0.0 0.0 0.00 0.00 0.00 75 1009.1
20260506170738 64 0.0 0.0 0.00 0.00 0.00 75 1009.1
20260506164137 65 0.0 0.0 0.00 0.00 0.00 74 1009.2
20260506162830 65 0.0 0.0 0.00 0.00 0.00 74 1009.2
20260506153620 66 0.0 0.0 0.00 0.00 0.00 72 1009.1
20260506151007 67 0.0 0.0 0.00 0.00 0.00 73 1009.2
20260506144359 67 0.0 0.0 0.00 0.00 0.00 73 1009.3
20260506143056 67 0.0 0.0 0.00 0.00 0.00 74 1009.3
20260506141752 67 0.0 0.0 0.00 0.00 0.00 74 1009.4
20260506132540 67 0.0 0.0 0.00 0.00 0.00 74 1009.7
20260506123321 66 0.0 0.0 0.00 0.00 0.00 74 1010.0
20260506115410 66 0.0 0.0 0.00 0.00 0.00 73 1010.0
20260506112804 67 0.0 0.0 0.00 0.00 0.00 71 1010.0
20260506110148 70 0.0 0.0 0.00 0.00 0.00 69 1010.1
20260506104842 71 0.0 0.0 0.00 0.00 0.00 69 1010.0
20260506103535 71 0.0 0.0 0.00 0.00 0.00 68 1010.0
20260506102234 72 0.0 0.0 0.00 0.00 0.00 68 1009.9
20260506100921 72 0.0 0.0 0.00 0.00 0.00 68 1009.9
20260506095615 72 0.0 0.0 0.00 0.00 0.00 69 1009.7
20260506094313 72 0.0 0.0 0.00 0.00 0.00 69 1009.6
20260506091655 72 0.0 0.0 0.00 0.00 0.00 70 1009.8
20260506085046 74 0.0 0.0 0.00 0.00 0.00 70 1009.5
20260506071855 71 0.0 0.0 0.00 0.00 0.00 78 1009.3
20260506070548 73 0.0 0.0 0.00 0.00 0.00 77 1009.4
20260506044205 55 0.0 0.0 0.00 0.00 0.00 93 1008.7
20260506041604 55 0.0 0.0 0.00 0.00 0.00 92 1008.6
20260506040302 56 0.0 0.0 0.00 0.00 0.00 91 1008.9
20260506033700 56 0.0 0.0 0.00 0.00 0.00 91 1009.6
20260506032359 56 0.0 0.0 0.00 0.00 0.00 91 1009.1
20260506031104 55 0.0 0.0 0.00 0.00 0.00 91 1008.9
20260506025803 55 0.0 0.0 0.00 0.00 0.00 91 1008.7
20260506024517 55 0.0 0.0 0.00 0.00 0.00 91 1009.1
20260506023156 56 0.0 0.0 0.00 0.00 0.00 91 1009.3
20260506015253 56 0.0 0.0 0.00 0.00 0.00 91 1009.8
20260506011350 57 0.0 0.0 0.00 0.00 0.00 91 1010.0
20260506010049 57 0.0 0.0 0.00 0.00 0.00 92 1010.0
20260506003448 56 0.0 0.0 0.00 0.00 0.00 93 1009.8
20260506002147 56 0.0 0.0 0.00 0.00 0.00 93 1010.4
20260506000908 56 0.0 0.0 0.00 0.00 0.00 93 1010.5
20260505235545 56 0.0 0.0 0.00 0.00 0.00 92 1011.0
20260505232942 57 0.0 0.0 0.00 0.00 0.00 91 1011.8
20260505231640 57 0.0 0.0 0.00 0.00 0.00 91 1012.0
20260505230339 57 0.0 0.0 0.00 0.00 0.00 91 1012.0
20260505223742 57 0.0 0.0 0.00 0.00 0.00 90 1011.3
20260505222435 57 0.0 0.0 0.00 0.00 0.00 90 1011.5
20260505221134 57 0.0 0.0 0.00 0.00 0.00 90 1011.9
20260505215833 57 0.0 0.0 0.00 0.00 0.00 90 1012.1
20260505214531 57 0.0 0.0 0.00 0.00 0.00 90 1012.4
20260505213230 57 0.0 0.0 0.00 0.00 0.00 90 1013.0
20260505211929 57 0.0 0.0 0.00 0.00 0.00 90 1012.9